Location: Cosy Dell
(34.2789°N, 117.4537°W)
Time: 21:10:34
(UTC+00:00)

Cosmos 1603 - Pass Details

Date: 14 July 2020
Orbit: 830 x 861 km, 71.0° (Epoch: 13 August)

Event Time Altitude Azimuth Distance (km) Brightness Sun altitude
Exits shadow 06:13:50 41° 55° (NE) 1,216 4.5 -29.1°
Drops below altitude 10° 06:17:43 10° 30° (NNE) 2,484 6.5 -29.5°
Sets 06:20:14 0° 26° (NNE) 3,427 7.4 -29.7°
